Kezdőlap
METAR-TAF:

METAR-TAF

Repülőterek :

Austin, Minnesota, Amerikai Egyesült Államok

földrajzi szélesség: 43-40N, földrajzi hosszúság: 092-56W, magasság: 375 m

Jelenlegi meteorológiai megfigyelések

A jelentés 21 perccel ezelõtt készült, 17:15 UTC
Északnyugati szél 11 kt
Hőmérséklet 8°C
Páratartalom 71%
Légköri nyomás 1019 hPa
Látótávolság: 16.1 km
Szórványos felhőzet 5500 lábon

METAR: KAUM 181715Z AUTO 31011KT 10SM SCT055 08/03 A3008 RMK AO2

Idő: 12:36 (17:36 UTC)


TAF: hiányzik

Meteorológiai megfigyelések és előrejelzések több, mint 4000 repülőtéren (METAR és TAF jelentéseket).

A térképen piros és sárga pontok jelzik az elérhető meteorológiai állomásokat.

Mozgassa az egeret a pont fölött, hogy megjelenjen az állomás neve.

Azután kattintson az időjárási megfigyelések és előrejelzések megtekintéséhez.

A térkép megváltoztatása: kattintson a fekete keresztel jelölt zöld gombra ráközelítéshez, a vonallal jelölt zöld gombra távolításhoz, vagy a zöld nyilakra a szomszédos térképek eléréséhez.


METAR-TAF: